Chatham, MA

12:12 PM EDT on September 19, 2017 (GMT -0400)
Chatham Municipal

Weather History for KCQX - October, 2013

Change the Weather History Date:

Thursday, October 10, 2013

  Actual Average Record
Temperature  
Mean Temperature 59 °F -  
Max Temperature 64 °F 60 °F 80 °F (2011)
Min Temperature 55 °F 46 °F 37 °F (1972)
Degree Days  
Heating Degree Days 6    
Growing Degree Days 9 (Base 50)    
Moisture  
Dew Point 53 °F    
Average Humidity 82    
Maximum Humidity 90    
Minimum Humidity 72    
Precipitation  
Precipitation 0.00 in - - ()
Sea Level Pressure  
Sea Level Pressure 30.25 in    
Wind  
Wind Speed 9 mph (NE)    
Max Wind Speed 12 mph    
Max Gust Speed 18 mph    
Visibility 10 miles    
Events      
Averages and records for this station are not official NWS values.
T = Trace of Precipitation, MM = Missing Value Source: NWS Daily Summary

Daily Weather History Graph

Daily Weather History Graph

Search for Another Location

Airport or City:

Trip Planner

Search our weather history database for the weather conditions in past years. The results will help you decide how hot, cold, wet, or windy it might be!

Date:

Astronomy

Oct. 10, 2013 Rise Set
Actual Time 6:46 AM EDT 6:06 PM EDT
Civil Twilight 6:18 AM EDT 6:34 PM EDT
Nautical Twilight 5:46 AM EDT 7:06 PM EDT
Astronomical Twilight 5:14 AM EDT 7:38 PM EDT
Moon 12:38 PM EDT (10/10) 10:37 PM EDT (10/10)
Length of Visible Light 12h 15m
Length of Day
11h 19m
Waxing Crescent, 35% of the Moon is Illuminated
Oct 10
Waxing Crescent
Oct 11
First Quarter
Oct 18
Full
Oct 26
Last Quarter
Nov 3
New

Hourly Weather History & Observations

Time (EDT) Temp. Dew Point Humidity Pressure Visibility Wind Dir Wind Speed Gust Speed Precip Events Conditions
12:52 AM 55.9 °F 48.0 °F 75% 30.34 in 10.0 mi ENE 8.1 mph - N/A   Clear
1:52 AM 55.9 °F 48.0 °F 75% 30.33 in 10.0 mi ENE 9.2 mph - N/A   Clear
2:52 AM 57.0 °F 48.0 °F 72% 30.31 in 10.0 mi ENE 11.5 mph - N/A   Clear
3:52 AM 57.0 °F 48.0 °F 72% 30.32 in 10.0 mi ENE 9.2 mph - N/A   Clear
4:52 AM 55.9 °F 48.9 °F 77% 30.30 in 10.0 mi ENE 9.2 mph - N/A   Clear
5:52 AM 57.0 °F 50.0 °F 77% 30.31 in 10.0 mi ENE 8.1 mph - N/A   Clear
6:52 AM 57.0 °F 51.1 °F 81% 30.30 in 10.0 mi ENE 6.9 mph - N/A   Clear
7:52 AM 57.0 °F 52.0 °F 83% 30.30 in 10.0 mi East 8.1 mph - N/A   Clear
8:52 AM 57.9 °F 53.1 °F 84% 30.30 in 10.0 mi ENE 11.5 mph - N/A   Clear
9:52 AM 60.1 °F 53.1 °F 78% 30.30 in 10.0 mi East 9.2 mph - N/A   Clear
10:23 AM 60.8 °F 53.6 °F 77% 30.29 in 10.0 mi East 10.4 mph - N/A   Mostly Cloudy
10:52 AM 61.0 °F 53.1 °F 75% 30.30 in 10.0 mi East 9.2 mph - N/A   Mostly Cloudy
11:03 AM 60.8 °F 53.6 °F 77% 30.29 in 10.0 mi ENE 11.5 mph - N/A   Mostly Cloudy
11:52 AM 62.1 °F 54.0 °F 75% 30.28 in 10.0 mi ENE 11.5 mph 18.4 mph N/A   Clear
12:52 PM 61.0 °F 54.0 °F 78% 30.26 in 10.0 mi ENE 11.5 mph - N/A   Clear
1:52 PM 63.0 °F 54.0 °F 72% 30.25 in 10.0 mi NE 11.5 mph - N/A   Clear
2:52 PM 61.0 °F 54.0 °F 78% 30.24 in 10.0 mi NE 10.4 mph - N/A   Partly Cloudy
3:52 PM 61.0 °F 55.0 °F 81% 30.22 in 10.0 mi NE 6.9 mph - N/A   Clear
4:52 PM 60.1 °F 55.0 °F 83% 30.22 in 10.0 mi NNE 6.9 mph - N/A   Partly Cloudy
5:52 PM 59.0 °F 55.0 °F 87% 30.20 in 10.0 mi NE 8.1 mph - N/A   Clear
6:39 PM 59.0 °F 55.4 °F 88% 30.19 in 10.0 mi NE 9.2 mph - N/A   Mostly Cloudy
6:52 PM 59.0 °F 55.0 °F 87% 30.20 in 10.0 mi NE 9.2 mph - N/A   Mostly Cloudy
7:09 PM 59.0 °F 55.4 °F 88% 30.19 in 10.0 mi NE 8.1 mph - N/A   Scattered Clouds
7:52 PM 59.0 °F 55.9 °F 90% 30.19 in 10.0 mi NE 8.1 mph - N/A   Partly Cloudy
7:59 PM 59.0 °F 55.4 °F 88% 30.18 in 10.0 mi NNE 8.1 mph - N/A   Partly Cloudy
8:52 PM 59.0 °F 55.9 °F 90% 30.18 in 10.0 mi NE 6.9 mph - N/A   Scattered Clouds
8:59 PM 59.0 °F 55.4 °F 88% 30.17 in 10.0 mi NE 9.2 mph - N/A   Mostly Cloudy
9:52 PM 59.0 °F 55.9 °F 90% 30.18 in 10.0 mi NE 9.2 mph - N/A   Overcast
10:28 PM 59.0 °F 55.4 °F 88% 30.17 in 10.0 mi NE 8.1 mph - N/A   Overcast
10:52 PM 59.0 °F 55.9 °F 90% 30.17 in 10.0 mi NE 8.1 mph - N/A   Mostly Cloudy
11:52 PM 59.0 °F 55.9 °F 90% 30.15 in 10.0 mi NE 9.2 mph - N/A   Mostly Cloudy